Location: *
(12.5665°N, 8.3471°E)
Time: 04:44:19
(UTC+00:00)

COSMO-SKYMED 1 - Pass Details

Date: 23 September 2019
Orbit: 621 x 623 km, 97.9° (Epoch: 22 October)

Event Time Altitude Azimuth Distance (km) Brightness Sun altitude
Rises 04:32:13 0° 152° (SSE) 2,893 6.4 -11.4°
Reaches altitude 10° 04:34:32 10° 143° (SE) 1,987 5.6 -10.9°
Maximum altitude 04:38:30 36° 77° (ENE) 984 4.4 -9.9°
Drops below altitude 10° 04:42:28 10° 10° (N) 1,987 5.3 -9.0°
Sets 04:44:47 0° 2° (N) 2,893 6.1 -8.4°
